SL-8 R/B, 11736

Orbit data source: Space-Track

SL-8 R/B, 11736 is space debris in LEO originally from a launch on Mon, 17 Mar 1980 UTC launched from the Plesetsk Missile And Space Complex (PKMTR). Debris objects in space refer to the collection of defunct objects orbiting the Earth. Examples of debris include non-operational satellites, rocket bodies, and fragments generated from explosions, collisions, or faulty payload assembly.

Loading next visibility...
Identifier
11736, 1980-022B
Orbit
LEO
Country
Flag of CISCIS
Related business
Manufacturer
Omsk Av. Zav.
Mission
Spacecraft
Bus & Motor
S3, Unknown motor
Mass
1,434 kg wet, 1,434 kg dry
Launch date (UTC)
1980-03-17 (46 years ago)
Launch vehicle
Unknown
Launch site
Plesetsk Missile And Space Complex (PKMTR)
Object type
Payload
Rocket body
Debris
Shape & HBR
Unknown
Radar Cross Section
Large (>1 m²)

Expand to show TLE details & history
Last TLE update: 11 hours ago

TLE from 11 hours ago
0 SL-8 R/B
1 11736U 80022B   25310.26574876  .00000094  00000-0  79728-4 0  9996
2 11736  82.9453  42.6311 0033819 162.6116 197.6208 13.76779938292078
Epoch: 2025-11-06T06:22Z
TLE epoch observation values (Epoch: 2025-11-06T06:22:40.692Z)
Latitude
-0.00003°
Longitude
-98.76499°
Altitude
1,001.946 km
Speed
7.339 km/s
True Right ascension
02h 50m 31s
True Declination
0° 00' 00"
Sunlit
Object was in full shadow at epoch
Visualization orbit readout
Latitude
Unknown
Longitude
Unknown
Altitude
Unknown
Speed
Unknown
Apparent Right ascension
Unknown
Apparent Declination
Unknown
Sunlit
N/A
Visualization observer readout
Local Sidereal Time
13:34:11
Azimuth
Unknown
Elevation
Unknown
Doppler factor
Unknown
Orbital elements
Apogee altitude
997.335 km
Perigee altitude
947.617 km
Semi-major axis
7,350.613 km
Eccentricity
0.00338
Inclination
82.9453°
RAAN
42.6311°
Arg. of periapsis
162.6116°
True anomaly
197.50396°
Mean anomaly
197.6208°
Eccentric anomaly
197.56233°
Mean motion
3.44396 °/min
Orbital period
104.53 mins
BSTAR
0.000079728
Loading maneuver chart data...
Computing Atmospheric mass density...
Loading historical data...
Loading historical data...
Loading historical data...
Loading historical data...
Loading historical data...
Loading historical data...
Loading historical data...
Other satellites on launch #22 in the year 1980 (1980-03-17 UTC)

Documentation

Showing up to 5 results
|